QPF
0.00 0.00 0.00 0.00 0.00 0.00 0.00 0.00 0.00 0.00 0.00 0.00 0.00 0.00 0.00 0.00 0.00 0.00 0.00 0.00 0.00 0.00 0.00 0.00 0.01 0.01 0.02 0.02 0.02 0.02 0.02 0.02 0.02 0.02 0.02 0.02 0.02 0.01 0.00 0.00 0.00 0.00 0.00 0.00 0.00 0.00 0.00 0.00 0.00
0.00 0.00 0.00 0.00 0.00 0.00 0.00 0.00 0.00 0.00 0.00 0.00 0.00 0.00 0.00 0.00 0.00 0.00 0.00 0.00 0.00 0.00 0.00 0.00 0.00 0.01 0.01 0.01 0.02 0.02 0.02 0.02 0.03 0.02 0.02 0.02 0.02 0.01 0.00 0.00 0.00 0.00 0.00 0.00 0.00 0.00 0.00 0.00 0.00
0.00 0.00 0.00 0.00 0.00 0.00 0.00 0.00 0.00 0.00 0.00 0.00 0.00 0.00 0.00 0.00 0.00 0.00 0.00 0.00 0.00 0.00 0.00 0.00 0.00 0.01 0.02 0.02 0.02 0.03 0.03 0.03 0.03 0.02 0.02 0.01 0.01 0.00 0.00 0.00 0.00 0.00 0.00 0.00 0.00 0.00 0.00 0.00 0.00
0.00 0.00 0.00 0.00 0.00 0.00 0.00 0.00 0.00 0.00 0.00 0.00 0.00 0.00 0.00 0.00 0.00 0.00 0.00 0.00 0.00 0.00 0.00 0.00 0.00 0.01 0.02 0.03 0.03 0.03 0.04 0.03 0.03 0.02 0.02 0.02 0.01 0.01 0.00 0.00 0.00 0.00 0.00 0.00 0.00 0.00 0.00 0.00 0.00
0.00 0.00 0.00 0.00 0.00 0.00 0.00 0.00 0.00 0.00 0.00 0.00 0.00 0.00 0.00 0.00 0.00 0.00 0.00 0.00 0.00 0.00 0.00 0.00 0.00 0.01 0.02 0.03 0.03 0.03 0.04 0.03 0.02 0.02 0.02 0.02 0.02 0.01 0.01 0.00 0.00 0.00 0.00 0.00 0.00 0.00 0.00 0.00 0.00
0.00 0.00 0.00 0.00 0.00 0.00 0.00 0.00 0.00 0.00 0.00 0.00 0.00 0.00 0.00 0.00 0.00 0.00 0.00 0.00 0.00 0.00 0.00 0.00 0.00 0.01 0.01 0.02 0.02 0.03 0.03 0.03 0.02 0.02 0.02 0.02 0.02 0.02 0.01 0.01 0.00 0.00 0.00 0.00 0.00 0.00 0.00 0.00 0.00
0.00 0.00 0.00 0.00 0.00 0.00 0.00 0.00 0.00 0.00 0.00 0.00 0.00 0.00 0.00 0.00 0.00 0.00 0.00 0.00 0.00 0.00 0.00 0.00 0.01 0.01 0.01 0.02 0.02 0.02 0.02 0.02 0.02 0.02 0.02 0.01 0.01 0.02 0.01 0.01 0.00 0.00 0.00 0.00 0.00 0.00 0.00 0.00 0.00
0.00 0.00 0.00 0.00 0.00 0.00 0.00 0.00 0.00 0.00 0.00 0.00 0.00 0.00 0.00 0.00 0.00 0.00 0.00 0.00 0.00 0.00 0.00 0.00 0.00 0.01 0.01 0.02 0.02 0.02 0.02 0.02 0.02 0.02 0.02 0.01 0.01 0.01 0.01 0.01 0.01 0.00 0.00 0.00 0.00 0.00 0.00 0.00 0.00
0.00 0.00 0.00 0.00 0.00 0.00 0.00 0.00 0.00 0.00 0.00 0.00 0.00 0.00 0.00 0.00 0.00 0.00 0.00 0.00 0.00 0.00 0.00 0.00 0.00 0.00 0.01 0.02 0.02 0.01 0.02 0.02 0.02 0.02 0.01 0.01 0.04 0.06 0.05 0.03 0.01 0.00 0.00 0.00 0.00 0.00 0.00 0.00 0.00
0.00 0.00 0.00 0.00 0.00 0.00 0.00 0.00 0.00 0.00 0.00 0.00 0.00 0.00 0.00 0.00 0.00 0.00 0.00 0.00 0.00 0.00 0.00 0.00 0.00 0.00 0.00 0.00 0.01 0.02 0.03 0.03 0.03 0.05 0.05 0.05 0.07 0.07 0.05 0.02 0.01 0.00 0.00 0.00 0.00 0.00 0.00 0.00 0.00
0.00 0.00 0.00 0.00 0.00 0.00 0.00 0.00 0.00 0.00 0.00 0.00 0.00 0.00 0.00 0.00 0.00 0.00 0.00 0.00 0.00 0.00 0.00 0.00 0.00 0.00 0.00 0.00 0.01 0.02 0.03 0.04 0.04 0.04 0.06 0.06 0.06 0.05 0.04 0.03 0.01 0.01 0.00 0.01 0.00 0.00 0.00 0.00 0.00
0.00 0.00 0.00 0.00 0.00 0.00 0.00 0.00 0.00 0.00 0.00 0.00 0.00 0.00 0.00 0.00 0.00 0.00 0.00 0.00 0.00 0.00 0.00 0.00 0.00 0.00 0.00 0.00 0.01 0.01 0.02 0.02 0.03 0.03 0.03 0.04 0.05 0.05 0.04 0.04 0.03 0.02 0.01 0.01 0.00 0.00 0.00 0.00 0.00
0.00 0.00 0.00 0.00 0.00 0.00 0.00 0.00 0.00 0.00 0.00 0.00 0.00 0.00 0.00 0.00 0.00 0.00 0.00 0.00 0.00 0.00 0.00 0.00 0.00 0.00 0.00 0.00 0.01 0.01 0.01 0.02 0.02 0.02 0.01 0.02 0.03 0.04 0.04 0.03 0.03 0.02 0.01 0.01 0.01 0.00 0.00 0.00 0.00
0.00 0.00 0.00 0.00 0.00 0.00 0.00 0.00 0.00 0.00 0.00 0.00 0.00 0.00 0.00 0.00 0.00 0.00 0.00 0.00 0.00 0.00 0.00 0.00 0.00 0.00 0.00 0.00 0.00 0.00 0.01 0.01 0.01 0.01 0.01 0.01 0.02 0.02 0.02 0.01 0.01 0.01 0.01 0.01 0.01 0.01 0.00 0.00 0.00
0.00 0.00 0.00 0.00 0.00 0.00 0.00 0.00 0.00 0.00 0.00 0.00 0.00 0.00 0.00 0.00 0.00 0.00 0.00 0.00 0.00 0.00 0.00 0.00 0.00 0.00 0.00 0.00 0.00 0.00 0.00 0.00 0.00 0.00 0.00 0.00 0.01 0.01 0.01 0.01 0.01 0.01 0.00 0.00 0.00 0.00 0.00 0.00 0.00
0.00 0.00 0.00 0.00 0.00 0.00 0.00 0.00 0.00 0.00 0.00 0.00 0.00 0.00 0.00 0.00 0.00 0.00 0.00 0.00 0.00 0.00 0.00 0.00 0.00 0.00 0.00 0.00 0.00 0.00 0.00 0.00 0.00 0.00 0.00 0.00 0.00 0.00 0.00 0.00 0.00 0.00 0.00 0.00 0.00 0.00 0.00 0.00 0.00
0.00 0.00 0.00 0.00 0.00 0.00 0.00 0.00 0.00 0.00 0.00 0.00 0.00 0.00 0.00 0.00 0.00 0.00 0.00 0.00 0.00 0.00 0.00 0.00 0.00 0.00 0.00 0.00 0.00 0.00 0.00 0.00 0.00 0.00 0.00 0.00 0.00 0.00 0.00 0.00 0.00 0.00 0.00 0.00 0.00 0.00 0.00 0.00 0.00
0.00 0.00 0.00 0.00 0.00 0.00 0.00 0.00 0.00 0.00 0.00 0.00 0.00 0.00 0.00 0.00 0.00 0.00 0.00 0.00 0.00 0.00 0.00 0.00 0.00 0.00 0.00 0.00 0.00 0.00 0.00 0.00 0.00 0.00 0.00 0.00 0.00 0.00 0.00 0.00 0.00 0.00 0.00 0.00 0.00 0.00 0.00 0.00 0.00
0.00 0.00 0.00 0.00 0.00 0.00 0.00 0.00 0.00 0.00 0.00 0.00 0.00 0.00 0.00 0.00 0.00 0.00 0.00 0.00 0.00 0.00 0.00 0.00 0.00 0.00 0.00 0.00 0.00 0.00 0.00 0.00 0.00 0.00 0.00 0.00 0.00 0.00 0.00 0.00 0.00 0.00 0.00 0.00 0.00 0.00 0.00 0.00 0.00
0.00 0.00 0.00 0.00 0.00 0.00 0.00 0.00 0.00 0.00 0.00 0.00 0.00 0.00 0.00 0.00 0.00 0.00 0.00 0.00 0.00 0.00 0.00 0.00 0.00 0.00 0.00 0.00 0.00 0.00 0.00 0.00 0.00 0.00 0.00 0.00 0.00 0.00 0.00 0.00 0.00 0.00 0.00 0.00 0.00 0.00 0.00 0.00 0.00
0.00 0.00 0.00 0.00 0.00 0.00 0.00 0.00 0.00 0.00 0.00 0.00 0.00 0.00 0.00 0.00 0.00 0.00 0.00 0.00 0.00 0.00 0.00 0.00 0.00 0.00 0.00 0.00 0.00 0.00 0.00 0.00 0.00 0.00 0.00 0.00 0.00 0.00 0.00 0.00 0.00 0.00 0.00 0.00 0.00 0.00 0.00 0.00 0.00
0.00 0.00 0.00 0.00 0.00 0.00 0.00 0.00 0.00 0.00 0.00 0.00 0.00 0.00 0.00 0.00 0.00 0.00 0.00 0.00 0.00 0.00 0.00 0.00 0.00 0.00 0.00 0.00 0.00 0.00 0.00 0.00 0.00 0.00 0.00 0.00 0.00 0.00 0.00 0.00 0.00 0.00 0.00 0.00 0.00 0.00 0.00 0.00 0.00
0.00 0.00 0.00 0.00 0.00 0.00 0.00 0.00 0.00 0.00 0.00 0.00 0.00 0.00 0.00 0.00 0.00 0.00 0.00 0.00 0.00 0.00 0.00 0.00 0.00 0.00 0.00 0.00 0.00 0.00 0.00 0.00 0.00 0.00 0.00 0.00 0.00 0.00 0.00 0.00 0.00 0.00 0.00 0.00 0.00 0.00 0.00 0.00 0.00
0.00 0.00 0.00 0.00 0.00 0.00 0.00 0.00 0.00 0.00 0.00 0.00 0.00 0.00 0.00 0.00 0.00 0.00 0.00 0.00 0.00 0.00 0.00 0.00 0.00 0.00 0.00 0.00 0.00 0.00 0.00 0.00 0.00 0.00 0.00 0.00 0.00 0.00 0.00 0.00 0.00 0.00 0.00 0.00 0.00 0.00 0.00 0.00 0.00
0.00 0.00 0.00 0.00 0.00 0.00 0.00 0.00 0.00 0.00 0.00 0.00 0.00 0.00 0.00 0.00 0.00 0.00 0.00 0.00 0.00 0.00 0.00 0.00 0.00 0.00 0.00 0.00 0.00 0.00 0.00 0.00 0.00 0.00 0.00 0.00 0.00 0.00 0.00 0.00 0.00 0.00 0.00 0.00 0.00 0.00 0.00 0.00 0.00
0.00 0.00 0.00 0.00 0.00 0.00 0.00 0.00 0.00 0.00 0.00 0.00 0.00 0.00 0.00 0.00 0.00 0.00 0.00 0.00 0.00 0.00 0.00 0.00 0.00 0.00 0.00 0.00 0.00 0.00 0.00 0.00 0.00 0.00 0.00 0.00 0.00 0.00 0.00 0.00 0.00 0.00 0.00 0.00 0.00 0.00 0.00 0.00 0.00
0.00 0.00 0.00 0.00 0.00 0.00 0.00 0.00 0.00 0.00 0.00 0.00 0.00 0.00 0.00 0.00 0.00 0.00 0.00 0.00 0.00 0.00 0.00 0.00 0.00 0.00 0.00 0.00 0.00 0.00 0.00 0.00 0.00 0.00 0.00 0.00 0.00 0.00 0.00 0.00 0.00 0.00 0.00 0.00 0.00 0.00 0.00 0.00 0.00
0.00 0.00 0.00 0.00 0.00 0.00 0.00 0.00 0.00 0.00 0.00 0.00 0.00 0.00 0.00 0.00 0.00 0.00 0.00 0.00 0.00 0.00 0.00 0.00 0.00 0.00 0.00 0.00 0.00 0.00 0.00 0.00 0.00 0.00 0.00 0.00 0.00 0.00 0.00 0.00 0.00 0.00 0.00 0.00 0.00 0.00 0.00 0.00 0.00
0.00 0.00 0.00 0.00 0.00 0.00 0.00 0.00 0.00 0.00 0.00 0.00 0.00 0.00 0.00 0.00 0.00 0.00 0.00 0.00 0.00 0.00 0.00 0.00 0.00 0.00 0.00 0.00 0.00 0.00 0.00 0.00 0.00 0.00 0.00 0.00 0.00 0.00 0.00 0.00 0.00 0.00 0.00 0.00 0.00 0.00 0.00 0.00 0.00
0.00 0.00 0.00 0.00 0.00 0.00 0.00 0.00 0.00 0.00 0.00 0.00 0.00 0.00 0.00 0.00 0.00 0.00 0.00 0.00 0.00 0.00 0.00 0.00 0.00 0.00 0.00 0.00 0.00 0.00 0.00 0.00 0.00 0.00 0.00 0.00 0.00 0.00 0.00 0.00 0.00 0.00 0.00 0.00 0.00 0.00 0.00 0.00 0.00
MSLP
1012.30 1012.76 1013.46 1014.32 1015.23 1016.07 1016.75 1017.22 1017.48 1017.55 1017.52 1017.46 1017.45 1017.51 1017.64 1017.81 1017.98 1018.08 1018.12 1018.09 1018.03 1018.00 1018.06 1018.23 1018.53 1018.93 1019.36 1019.76 1020.09 1020.31 1020.42 1020.45 1020.46 1020.50 1020.60 1020.78 1021.03 1021.31 1021.58 1021.79 1021.93 1022.00 1022.00 1021.98 1021.94 1021.91 1021.88 1021.84 1021.77
1012.74 1013.32 1014.10 1014.96 1015.82 1016.55 1017.09 1017.40 1017.50 1017.45 1017.34 1017.26 1017.26 1017.36 1017.55 1017.78 1017.99 1018.12 1018.16 1018.12 1018.05 1018.01 1018.06 1018.24 1018.56 1018.98 1019.45 1019.89 1020.26 1020.51 1020.67 1020.75 1020.81 1020.89 1021.03 1021.23 1021.49 1021.76 1022.01 1022.20 1022.32 1022.37 1022.37 1022.34 1022.31 1022.28 1022.26 1022.21 1022.13
1013.32 1013.97 1014.76 1015.58 1016.33 1016.91 1017.27 1017.41 1017.37 1017.23 1017.09 1017.03 1017.09 1017.28 1017.55 1017.85 1018.11 1018.27 1018.31 1018.27 1018.18 1018.12 1018.16 1018.33 1018.65 1019.07 1019.55 1020.01 1020.41 1020.71 1020.90 1021.03 1021.14 1021.26 1021.43 1021.65 1021.91 1022.17 1022.39 1022.56 1022.65 1022.68 1022.67 1022.64 1022.62 1022.61 1022.59 1022.55 1022.47
1013.96 1014.65 1015.40 1016.13 1016.73 1017.13 1017.32 1017.31 1017.16 1016.98 1016.85 1016.84 1016.99 1017.28 1017.65 1018.03 1018.33 1018.52 1018.57 1018.51 1018.41 1018.33 1018.35 1018.51 1018.81 1019.22 1019.68 1020.14 1020.54 1020.85 1021.08 1021.24 1021.39 1021.54 1021.74 1021.97 1022.23 1022.47 1022.68 1022.82 1022.90 1022.92 1022.91 1022.90 1022.90 1022.91 1022.91 1022.89 1022.83
1014.58 1015.26 1015.95 1016.55 1016.99 1017.23 1017.26 1017.13 1016.93 1016.74 1016.67 1016.75 1017.00 1017.39 1017.85 1018.29 1018.63 1018.83 1018.88 1018.81 1018.70 1018.61 1018.62 1018.75 1019.03 1019.41 1019.84 1020.26 1020.63 1020.93 1021.15 1021.33 1021.50 1021.68 1021.90 1022.15 1022.40 1022.65 1022.85 1022.98 1023.06 1023.10 1023.11 1023.13 1023.16 1023.20 1023.24 1023.25 1023.20
1015.13 1015.77 1016.36 1016.83 1017.12 1017.21 1017.13 1016.94 1016.72 1016.58 1016.59 1016.77 1017.13 1017.61 1018.13 1018.60 1018.96 1019.16 1019.21 1019.14 1019.02 1018.94 1018.93 1019.05 1019.29 1019.62 1019.99 1020.36 1020.67 1020.92 1021.12 1021.29 1021.46 1021.66 1021.89 1022.16 1022.43 1022.69 1022.90 1023.06 1023.16 1023.23 1023.28 1023.34 1023.42 1023.50 1023.58 1023.62 1023.61
1015.56 1016.13 1016.62 1016.96 1017.11 1017.10 1016.96 1016.76 1016.59 1016.53 1016.64 1016.93 1017.38 1017.92 1018.47 1018.95 1019.30 1019.49 1019.53 1019.47 1019.36 1019.28 1019.28 1019.39 1019.59 1019.86 1020.15 1020.43 1020.66 1020.85 1020.99 1021.14 1021.30 1021.51 1021.77 1022.06 1022.36 1022.65 1022.89 1023.08 1023.22 1023.34 1023.45 1023.56 1023.69 1023.81 1023.93 1024.01 1024.03
1015.89 1016.38 1016.75 1016.97 1017.03 1016.96 1016.80 1016.64 1016.55 1016.60 1016.82 1017.21 1017.72 1018.30 1018.85 1019.31 1019.64 1019.80 1019.83 1019.78 1019.70 1019.64 1019.65 1019.74 1019.90 1020.10 1020.31 1020.49 1020.63 1020.74 1020.83 1020.95 1021.11 1021.33 1021.61 1021.93 1022.27 1022.59 1022.87 1023.10 1023.30 1023.46 1023.62 1023.79 1023.96 1024.13 1024.28 1024.38 1024.43
1016.16 1016.55 1016.82 1016.94 1016.93 1016.84 1016.71 1016.62 1016.63 1016.80 1017.12 1017.59 1018.14 1018.71 1019.24 1019.67 1019.95 1020.10 1020.13 1020.09 1020.04 1020.01 1020.04 1020.12 1020.24 1020.37 1020.49 1020.57 1020.62 1020.66 1020.71 1020.79 1020.96 1021.19 1021.50 1021.86 1022.22 1022.58 1022.90 1023.17 1023.41 1023.63 1023.83 1024.04 1024.25 1024.44 1024.61 1024.73 1024.79
1016.42 1016.71 1016.87 1016.92 1016.87 1016.78 1016.70 1016.70 1016.82 1017.09 1017.50 1018.01 1018.58 1019.14 1019.63 1020.01 1020.26 1020.39 1020.43 1020.42 1020.41 1020.42 1020.46 1020.52 1020.60 1020.67 1020.70 1020.70 1020.68 1020.66 1020.68 1020.76 1020.93 1021.19 1021.53 1021.91 1022.30 1022.68 1023.03 1023.33 1023.60 1023.84 1024.08 1024.31 1024.54 1024.74 1024.91 1025.03 1025.09
1016.70 1016.90 1016.98 1016.96 1016.89 1016.82 1016.80 1016.88 1017.09 1017.44 1017.90 1018.44 1019.00 1019.52 1019.97 1020.31 1020.54 1020.67 1020.74 1020.78 1020.81 1020.85 1020.91 1020.96 1021.00 1021.01 1020.98 1020.91 1020.84 1020.79 1020.80 1020.90 1021.09 1021.38 1021.73 1022.13 1022.53 1022.92 1023.27 1023.58 1023.86 1024.12 1024.37 1024.61 1024.84 1025.03 1025.19 1025.28 1025.32
1017.03 1017.14 1017.15 1017.08 1017.00 1016.96 1016.99 1017.13 1017.40 1017.80 1018.29 1018.82 1019.35 1019.84 1020.25 1020.56 1020.79 1020.95 1021.06 1021.15 1021.23 1021.31 1021.38 1021.42 1021.43 1021.39 1021.31 1021.21 1021.13 1021.08 1021.11 1021.23 1021.45 1021.76 1022.13 1022.52 1022.91 1023.28 1023.62 1023.91 1024.19 1024.45 1024.70 1024.93 1025.14 1025.32 1025.44 1025.50 1025.50
1017.36 1017.40 1017.36 1017.27 1017.19 1017.17 1017.24 1017.42 1017.72 1018.12 1018.59 1019.09 1019.59 1020.03 1020.42 1020.74 1021.00 1021.20 1021.38 1021.53 1021.66 1021.77 1021.85 1021.88 1021.86 1021.79 1021.69 1021.59 1021.52 1021.51 1021.58 1021.74 1022.00 1022.32 1022.69 1023.06 1023.42 1023.75 1024.05 1024.32 1024.57 1024.82 1025.06 1025.28 1025.47 1025.61 1025.69 1025.70 1025.66
1017.66 1017.65 1017.58 1017.49 1017.42 1017.42 1017.50 1017.69 1017.97 1018.34 1018.77 1019.22 1019.66 1020.09 1020.47 1020.82 1021.13 1021.41 1021.66 1021.88 1022.06 1022.20 1022.28 1022.30 1022.26 1022.18 1022.10 1022.02 1022.00 1022.05 1022.18 1022.41 1022.70 1023.03 1023.37 1023.71 1024.01 1024.28 1024.53 1024.76 1024.99 1025.22 1025.45 1025.66 1025.83 1025.94 1025.98 1025.94 1025.85
1017.87 1017.85 1017.78 1017.70 1017.65 1017.66 1017.74 1017.90 1018.14 1018.44 1018.79 1019.18 1019.57 1019.98 1020.39 1020.78 1021.17 1021.54 1021.88 1022.17 1022.40 1022.55 1022.64 1022.65 1022.60 1022.54 1022.48 1022.47 1022.53 1022.66 1022.88 1023.16 1023.49 1023.82 1024.13 1024.41 1024.65 1024.86 1025.05 1025.24 1025.45 1025.67 1025.89 1026.10 1026.25 1026.34 1026.34 1026.25 1026.11
1017.97 1017.96 1017.92 1017.87 1017.85 1017.87 1017.93 1018.04 1018.19 1018.40 1018.66 1018.96 1019.31 1019.71 1020.16 1020.63 1021.11 1021.59 1022.01 1022.37 1022.64 1022.81 1022.89 1022.90 1022.86 1022.83 1022.83 1022.90 1023.06 1023.30 1023.62 1023.97 1024.33 1024.66 1024.93 1025.15 1025.33 1025.47 1025.61 1025.76 1025.95 1026.17 1026.40 1026.60 1026.75 1026.82 1026.79 1026.67 1026.49
1017.96 1017.99 1018.00 1018.01 1018.03 1018.04 1018.06 1018.09 1018.14 1018.22 1018.37 1018.59 1018.90 1019.30 1019.80 1020.36 1020.95 1021.53 1022.05 1022.48 1022.78 1022.96 1023.04 1023.05 1023.03 1023.04 1023.12 1023.30 1023.58 1023.94 1024.36 1024.79 1025.18 1025.51 1025.75 1025.92 1026.03 1026.11 1026.21 1026.34 1026.52 1026.74 1026.98 1027.19 1027.35 1027.41 1027.37 1027.23 1027.03
1017.89 1017.98 1018.06 1018.13 1018.18 1018.18 1018.14 1018.06 1017.98 1017.92 1017.94 1018.07 1018.34 1018.76 1019.32 1019.98 1020.70 1021.39 1022.00 1022.49 1022.83 1023.02 1023.10 1023.11 1023.12 1023.19 1023.36 1023.65 1024.05 1024.54 1025.07 1025.58 1026.01 1026.34 1026.57 1026.69 1026.76 1026.80 1026.86 1026.98 1027.17 1027.40 1027.65 1027.87 1028.04 1028.11 1028.07 1027.93 1027.73
1017.79 1017.96 1018.13 1018.26 1018.33 1018.30 1018.18 1017.97 1017.73 1017.51 1017.40 1017.44 1017.67 1018.12 1018.75 1019.52 1020.36 1021.17 1021.87 1022.42 1022.80 1023.01 1023.09 1023.11 1023.16 1023.29 1023.55 1023.95 1024.48 1025.09 1025.72 1026.31 1026.79 1027.14 1027.36 1027.47 1027.51 1027.53 1027.58 1027.70 1027.89 1028.13 1028.39 1028.63 1028.81 1028.89 1028.87 1028.75 1028.56
1017.71 1017.98 1018.23 1018.42 1018.50 1018.41 1018.18 1017.82 1017.40 1017.02 1016.76 1016.71 1016.91 1017.39 1018.10 1018.99 1019.95 1020.88 1021.69 1022.31 1022.73 1022.96 1023.05 1023.09 1023.17 1023.36 1023.70 1024.20 1024.84 1025.56 1026.29 1026.94 1027.48 1027.86 1028.10 1028.21 1028.26 1028.29 1028.35 1028.47 1028.67 1028.92 1029.19 1029.44 1029.62 1029.72 1029.72 1029.63 1029.49
1017.67 1018.04 1018.38 1018.62 1018.67 1018.51 1018.14 1017.61 1017.00 1016.44 1016.04 1015.90 1016.08 1016.59 1017.40 1018.40 1019.50 1020.56 1021.48 1022.18 1022.65 1022.91 1023.03 1023.09 1023.20 1023.43 1023.84 1024.42 1025.14 1025.94 1026.74 1027.46 1028.04 1028.47 1028.74 1028.89 1028.96 1029.02 1029.11 1029.26 1029.47 1029.73 1030.00 1030.24 1030.43 1030.54 1030.56 1030.51 1030.43
1017.66 1018.14 1018.55 1018.81 1018.83 1018.57 1018.05 1017.34 1016.54 1015.81 1015.27 1015.05 1015.22 1015.77 1016.66 1017.79 1019.03 1020.22 1021.25 1022.04 1022.58 1022.88 1023.03 1023.12 1023.26 1023.53 1023.97 1024.60 1025.36 1026.21 1027.05 1027.82 1028.45 1028.92 1029.24 1029.44 1029.57 1029.68 1029.81 1029.99 1030.23 1030.49 1030.76 1030.99 1031.18 1031.29 1031.34 1031.33 1031.31
1017.65 1018.23 1018.71 1018.97 1018.93 1018.57 1017.89 1017.00 1016.03 1015.14 1014.49 1014.21 1014.36 1014.96 1015.94 1017.19 1018.55 1019.87 1021.01 1021.91 1022.52 1022.89 1023.09 1023.21 1023.37 1023.66 1024.12 1024.75 1025.52 1026.38 1027.23 1028.02 1028.67 1029.19 1029.56 1029.83 1030.03 1030.21 1030.41 1030.64 1030.89 1031.16 1031.42 1031.65 1031.82 1031.93 1032.00 1032.04 1032.07
1017.59 1018.26 1018.78 1019.04 1018.94 1018.47 1017.66 1016.62 1015.50 1014.48 1013.74 1013.42 1013.58 1014.22 1015.28 1016.62 1018.10 1019.53 1020.79 1021.78 1022.48 1022.92 1023.18 1023.34 1023.53 1023.82 1024.27 1024.89 1025.64 1026.46 1027.29 1028.07 1028.74 1029.28 1029.71 1030.05 1030.33 1030.59 1030.86 1031.14 1031.43 1031.71 1031.97 1032.18 1032.33 1032.45 1032.53 1032.60 1032.68
1017.46 1018.20 1018.74 1018.98 1018.82 1018.26 1017.34 1016.19 1014.97 1013.88 1013.09 1012.75 1012.92 1013.60 1014.72 1016.14 1017.70 1019.22 1020.56 1021.65 1022.44 1022.96 1023.28 1023.50 1023.71 1024.02 1024.45 1025.03 1025.72 1026.49 1027.28 1028.02 1028.68 1029.24 1029.71 1030.12 1030.48 1030.82 1031.16 1031.50 1031.83 1032.13 1032.38 1032.58 1032.72 1032.83 1032.92 1033.01 1033.13
1017.23 1018.01 1018.56 1018.77 1018.56 1017.94 1016.95 1015.75 1014.49 1013.37 1012.58 1012.25 1012.44 1013.15 1014.30 1015.75 1017.35 1018.92 1020.33 1021.49 1022.35 1022.95 1023.35 1023.64 1023.90 1024.22 1024.64 1025.18 1025.81 1026.51 1027.22 1027.91 1028.55 1029.11 1029.61 1030.07 1030.51 1030.92 1031.34 1031.73 1032.10 1032.41 1032.67 1032.86 1032.99 1033.09 1033.18 1033.29 1033.44
1016.91 1017.69 1018.22 1018.39 1018.14 1017.49 1016.49 1015.29 1014.05 1012.98 1012.23 1011.93 1012.15 1012.87 1014.02 1015.47 1017.06 1018.63 1020.06 1021.26 1022.19 1022.87 1023.35 1023.72 1024.04 1024.39 1024.82 1025.33 1025.91 1026.54 1027.19 1027.81 1028.40 1028.95 1029.47 1029.97 1030.46 1030.94 1031.41 1031.86 1032.26 1032.59 1032.86 1033.04 1033.17 1033.26 1033.35 1033.46 1033.62
1016.48 1017.22 1017.69 1017.82 1017.54 1016.89 1015.93 1014.79 1013.64 1012.66 1012.00 1011.77 1012.02 1012.73 1013.85 1015.24 1016.77 1018.30 1019.71 1020.91 1021.89 1022.64 1023.22 1023.68 1024.09 1024.50 1024.96 1025.47 1026.02 1026.59 1027.18 1027.75 1028.29 1028.82 1029.34 1029.86 1030.38 1030.90 1031.42 1031.90 1032.33 1032.69 1032.96 1033.15 1033.27 1033.36 1033.44 1033.55 1033.70
1015.92 1016.57 1016.96 1017.02 1016.73 1016.10 1015.22 1014.20 1013.19 1012.35 1011.82 1011.67 1011.95 1012.65 1013.71 1015.01 1016.44 1017.87 1019.22 1020.41 1021.40 1022.22 1022.89 1023.47 1023.98 1024.49 1025.00 1025.54 1026.09 1026.64 1027.19 1027.71 1028.22 1028.73 1029.24 1029.76 1030.30 1030.84 1031.39 1031.89 1032.34 1032.71 1032.99 1033.18 1033.31 1033.39 1033.47 1033.57 1033.71
1015.22 1015.73 1015.99 1015.97 1015.66 1015.08 1014.30 1013.44 1012.61 1011.95 1011.56 1011.51 1011.84 1012.52 1013.49 1014.68 1015.98 1017.30 1018.56 1019.70 1020.71 1021.59 1022.35 1023.04 1023.68 1024.29 1024.90 1025.49 1026.07 1026.63 1027.17 1027.67 1028.16 1028.65 1029.15 1029.67 1030.21 1030.76 1031.31 1031.83 1032.29 1032.66 1032.95 1033.15 1033.28 1033.36 1033.44 1033.53 1033.65
Thickness
5767 5771 5774 5763 5741 5726 5713 5721 5729 5727 5726 5730 5734 5732 5718 5711 5703 5690 5709 5719 5721 5716 5709 5705 5702 5700 5698 5696 5694 5693 5692 5692 5691 5691 5690 5690 5690 5690 5690 5690 5690 5691 5692 5692 5692 5693 5694 5695 5696
5767 5771 5766 5752 5729 5711 5711 5725 5723 5724 5729 5736 5738 5733 5721 5715 5719 5713 5713 5717 5719 5716 5710 5705 5702 5700 5697 5695 5694 5692 5691 5691 5690 5689 5688 5688 5687 5687 5687 5686 5687 5687 5687 5688 5688 5688 5689 5690 5691
5768 5769 5754 5742 5730 5720 5716 5727 5725 5730 5736 5737 5732 5729 5718 5711 5715 5714 5714 5719 5718 5715 5710 5705 5701 5699 5697 5695 5693 5691 5690 5689 5688 5688 5687 5686 5685 5684 5684 5683 5683 5683 5683 5683 5683 5684 5684 5686 5687
5764 5759 5751 5735 5725 5730 5731 5732 5733 5730 5733 5737 5733 5717 5711 5712 5713 5714 5717 5719 5717 5714 5710 5705 5701 5698 5696 5694 5692 5690 5689 5688 5687 5686 5685 5684 5683 5682 5681 5681 5680 5680 5679 5679 5679 5679 5680 5681 5682
5762 5749 5736 5729 5727 5732 5737 5738 5739 5732 5730 5733 5733 5713 5703 5709 5714 5715 5715 5716 5714 5712 5708 5704 5700 5698 5696 5694 5692 5690 5688 5687 5686 5684 5683 5682 5681 5679 5678 5678 5677 5676 5676 5675 5675 5676 5676 5676 5677
5749 5744 5725 5720 5725 5731 5736 5739 5738 5734 5728 5731 5729 5713 5700 5706 5708 5711 5712 5712 5710 5707 5705 5702 5699 5697 5695 5694 5692 5690 5688 5686 5684 5683 5682 5680 5679 5677 5676 5675 5674 5673 5672 5672 5672 5672 5672 5672 5672
5739 5731 5723 5731 5722 5725 5732 5738 5736 5733 5726 5725 5728 5714 5701 5701 5705 5709 5709 5707 5705 5702 5701 5699 5698 5696 5695 5693 5691 5689 5687 5685 5683 5682 5680 5678 5677 5675 5673 5672 5670 5669 5669 5668 5668 5667 5667 5667 5667
5740 5730 5725 5728 5724 5723 5733 5736 5735 5731 5724 5728 5724 5713 5698 5699 5705 5707 5705 5702 5700 5698 5697 5696 5695 5695 5694 5693 5691 5688 5686 5684 5682 5680 5678 5676 5675 5673 5671 5669 5667 5666 5665 5664 5663 5662 5662 5662 5662
5740 5719 5715 5727 5728 5728 5732 5728 5729 5732 5727 5718 5710 5701 5699 5703 5705 5703 5700 5698 5695 5694 5693 5692 5692 5692 5692 5691 5690 5688 5685 5683 5681 5679 5677 5675 5673 5671 5668 5666 5664 5663 5661 5660 5659 5658 5657 5657 5656
5729 5709 5720 5730 5734 5733 5729 5727 5725 5722 5717 5708 5701 5698 5700 5702 5701 5698 5695 5692 5690 5689 5688 5688 5688 5688 5689 5689 5688 5686 5684 5682 5679 5677 5675 5673 5671 5669 5666 5663 5661 5659 5657 5655 5653 5652 5652 5651 5650
5726 5717 5723 5728 5728 5729 5726 5725 5726 5717 5710 5708 5703 5695 5696 5695 5694 5691 5688 5686 5684 5684 5683 5683 5684 5685 5685 5685 5684 5683 5681 5679 5676 5674 5672 5670 5668 5665 5662 5659 5656 5654 5652 5650 5648 5647 5645 5644 5643
5719 5721 5721 5723 5718 5719 5719 5719 5716 5709 5698 5697 5698 5697 5693 5690 5686 5683 5681 5680 5679 5678 5677 5678 5679 5681 5681 5681 5680 5678 5676 5673 5671 5669 5667 5666 5663 5660 5657 5654 5651 5649 5646 5644 5643 5641 5640 5638 5636
5710 5715 5716 5715 5712 5712 5712 5709 5709 5703 5694 5694 5693 5691 5688 5685 5682 5678 5678 5676 5673 5672 5671 5672 5675 5677 5677 5676 5674 5671 5669 5666 5663 5662 5661 5660 5657 5654 5650 5647 5644 5641 5639 5637 5635 5634 5633 5631 5630
5708 5710 5710 5709 5706 5705 5700 5701 5702 5700 5692 5688 5687 5684 5682 5678 5677 5675 5672 5670 5667 5665 5665 5666 5669 5671 5671 5669 5666 5664 5661 5658 5655 5653 5652 5651 5649 5646 5642 5639 5635 5633 5631 5630 5627 5626 5624 5623 5622
5701 5696 5699 5702 5700 5700 5694 5688 5696 5701 5689 5684 5681 5679 5676 5673 5671 5668 5665 5664 5661 5659 5659 5660 5661 5663 5663 5660 5658 5655 5652 5650 5647 5644 5643 5642 5640 5637 5634 5630 5626 5623 5622 5621 5619 5617 5616 5614 5613
5691 5685 5681 5699 5697 5693 5680 5676 5697 5694 5685 5680 5678 5674 5671 5668 5666 5663 5661 5658 5655 5654 5653 5653 5654 5654 5653 5651 5648 5645 5643 5641 5637 5635 5633 5632 5630 5627 5624 5620 5617 5614 5612 5611 5609 5607 5605 5603 5602
5676 5669 5676 5687 5691 5684 5672 5675 5683 5685 5681 5678 5676 5673 5668 5663 5661 5657 5655 5652 5650 5648 5647 5646 5646 5645 5644 5641 5639 5636 5633 5630 5627 5625 5623 5621 5619 5617 5615 5611 5607 5605 5602 5600 5598 5595 5592 5590 5590
5669 5671 5677 5680 5680 5678 5667 5671 5675 5676 5675 5675 5674 5671 5666 5662 5657 5652 5648 5646 5644 5642 5641 5639 5638 5637 5636 5634 5631 5627 5623 5619 5616 5614 5612 5610 5608 5606 5603 5599 5596 5593 5590 5588 5585 5583 5580 5577 5577
5674 5669 5667 5677 5675 5671 5665 5668 5674 5672 5670 5671 5672 5668 5663 5659 5651 5645 5641 5639 5637 5636 5634 5633 5632 5631 5630 5627 5624 5618 5612 5607 5605 5602 5600 5598 5596 5594 5591 5587 5583 5580 5576 5572 5570 5568 5565 5562 5562
5664 5657 5658 5667 5666 5661 5658 5663 5676 5674 5672 5673 5672 5669 5663 5654 5644 5639 5635 5632 5630 5629 5628 5627 5626 5624 5622 5619 5615 5609 5603 5597 5593 5590 5587 5585 5583 5580 5577 5573 5569 5565 5561 5557 5554 5551 5548 5544 5542
5655 5650 5651 5653 5653 5648 5645 5647 5664 5676 5676 5675 5675 5671 5664 5654 5642 5633 5629 5625 5623 5621 5619 5619 5618 5615 5612 5609 5605 5599 5594 5587 5581 5576 5574 5571 5568 5565 5562 5558 5554 5549 5545 5540 5535 5532 5529 5523 5520
5641 5654 5651 5647 5635 5631 5634 5625 5663 5676 5672 5673 5669 5664 5658 5650 5640 5630 5624 5619 5615 5612 5611 5610 5608 5606 5603 5600 5597 5593 5586 5578 5569 5564 5561 5557 5554 5551 5546 5542 5537 5533 5528 5523 5518 5513 5508 5503 5497
5642 5643 5644 5639 5627 5617 5627 5620 5647 5669 5664 5668 5665 5657 5650 5643 5634 5625 5618 5612 5607 5604 5602 5600 5598 5596 5594 5591 5588 5582 5574 5567 5559 5554 5549 5544 5539 5535 5531 5526 5521 5516 5510 5504 5499 5493 5488 5483 5476
5632 5630 5623 5619 5609 5596 5620 5618 5637 5658 5668 5673 5668 5655 5644 5635 5626 5616 5609 5603 5598 5594 5592 5590 5588 5586 5584 5581 5576 5571 5565 5557 5550 5543 5537 5531 5525 5520 5515 5510 5504 5498 5492 5486 5480 5474 5468 5461 5455
5622 5611 5593 5588 5583 5595 5625 5622 5642 5666 5672 5674 5667 5652 5639 5627 5617 5608 5599 5594 5589 5586 5584 5581 5578 5575 5573 5570 5565 5559 5554 5548 5540 5533 5526 5518 5511 5505 5499 5494 5487 5481 5474 5467 5461 5454 5447 5440 5432
5611 5611 5588 5581 5585 5599 5611 5613 5640 5641 5645 5651 5652 5641 5630 5618 5610 5601 5593 5588 5583 5579 5576 5573 5569 5565 5562 5558 5553 5548 5542 5535 5528 5521 5514 5506 5498 5491 5484 5478 5471 5463 5456 5449 5442 5434 5426 5418 5410
5601 5600 5613 5594 5581 5573 5594 5619 5637 5625 5631 5633 5633 5626 5619 5611 5603 5595 5588 5583 5577 5572 5569 5565 5560 5556 5551 5546 5541 5535 5529 5522 5515 5507 5500 5492 5484 5476 5469 5461 5454 5445 5438 5430 5422 5413 5404 5396 5388
5608 5604 5586 5579 5571 5572 5594 5607 5623 5621 5627 5623 5621 5619 5613 5605 5598 5590 5583 5577 5570 5565 5561 5556 5551 5546 5540 5535 5529 5522 5515 5508 5501 5493 5485 5477 5469 5461 5452 5444 5436 5428 5419 5410 5402 5393 5383 5374 5366
5590 5587 5588 5582 5578 5571 5579 5611 5643 5641 5636 5627 5623 5619 5613 5605 5597 5588 5579 5571 5564 5557 5551 5546 5540 5534 5528 5521 5515 5508 5500 5493 5486 5478 5470 5462 5453 5445 5436 5427 5419 5410 5400 5391 5382 5372 5363 5353 5344
5591 5589 5586 5574 5571 5580 5584 5610 5622 5629 5634 5628 5621 5616 5608 5598 5589 5581 5572 5564 5556 5549 5542 5536 5530 5523 5516 5509 5501 5493 5486 5479 5471 5463 5455 5447 5438 5428 5419 5410 5401 5391 5382 5372 5362 5352 5343 5333 5323